Find Skorpion

NORAD ID: 67293 Int'l Des: 2025-313 Owner: MGU Country: RU operational
LEOCIRCULARRETROGRADESSO

当前视图

正在加载3D地球...

About Skorpion

Skorpion (NORAD 67293) is a satellite launched Dec 28, 2025 by MGU of RU. It operates in LEO, CIRCULAR, RETROGRADE, SSO orbit with a mass of 21.00 kg.

即将过境

Passes for default location (London). Set your location on the main map for personalized predictions.

高度历史

Loading altitude history...

两行轨道根数

1 67293U 25313AX 26195.15342544 .00002221 00000-0 97370-4 0 9999
2 67293 97.3932 269.4960 0009421 249.4652 110.5574 15.23000177 30064
Epoch: Jul 14, 2026 • Age: 14 hours

当前状态

高度 505.1 km
远地点 / 近地点 N/A
速度 7.61 km/s
星下点 26.61°N, 63.9°E
发射日期 Dec 28, 2025
运行时间 0.5 years
类型 other

技术详情

分类 Payload
质量 21.00 kg
干质量 21.00 kg
总质量 21.00 kg
长度 0.40 m
直径 0.40 m
跨度 0.40 m
形状 Box
制造商 DOSAAN
平台类型 Cubesat 16U
阶段状态 In Orbit
所有者/国家 MGU/RU

Most Searched